DeKalb, IL

1:19 PM CDT on August 23, 2017 (GMT -0500)
De Kalb Taylor Municipal

Weather History for KDKB - January, 2014

Change the Weather History Date:

Tuesday, January 28, 2014

  Actual Average (KARR) Record (KARR)
Temperature  
Mean Temperature -6 °F -  
Max Temperature 1 °F 28 °F 54 °F (2002)
Min Temperature -13 °F 14 °F -15 °F (2014)
Degree Days  
Heating Degree Days 71    
Moisture  
Dew Point -14 °F    
Average Humidity 67    
Maximum Humidity 74    
Minimum Humidity 54    
Precipitation  
Precipitation 0.00 in - - ()
Sea Level Pressure  
Sea Level Pressure 30.32 in    
Wind  
Wind Speed 12 mph (West)    
Max Wind Speed 18 mph    
Max Gust Speed 25 mph    
Visibility 10 miles    
Events      
Averages and records for this station are not official NWS values.
T = Trace of Precipitation, MM = Missing Value Source: NWS Daily Summary

Daily Weather History Graph

Daily Weather History Graph

Search for Another Location

Airport or City:

Trip Planner

Search our weather history database for the weather conditions in past years. The results will help you decide how hot, cold, wet, or windy it might be!

Date:

Astronomy

Jan. 28, 2014 Rise Set
Actual Time 7:11 AM CST 5:04 PM CST
Civil Twilight 6:41 AM CST 5:34 PM CST
Nautical Twilight 6:07 AM CST 6:08 PM CST
Astronomical Twilight 5:34 AM CST 6:41 PM CST
Moon 4:53 AM CST (1/28) 2:54 PM CST (1/28)
Length of Visible Light 10h 53m
Length of Day
9h 53m
Waning Crescent, 7% of the Moon is Illuminated
Jan 28
Waning Crescent
Jan 30
New
Feb 6
First Quarter
Feb 14
Full
Feb 22
Last Quarter

Hourly Weather History & Observations

Time (CST) Temp. Windchill Dew Point Humidity Pressure Visibility Wind Dir Wind Speed Gust Speed Precip Events Conditions
12:15 AM -10.7 °F -30.5 °F -19.3 °F 66% 30.39 in 10.0 mi West 11.5 mph - N/A   Clear
12:35 AM -11.2 °F -30.1 °F -19.3 °F 67% 30.39 in 10.0 mi West 10.4 mph - N/A   Clear
12:55 AM -11.4 °F -31.4 °F -19.3 °F 68% 30.39 in 10.0 mi West 11.5 mph - N/A   Clear
1:15 AM -11.6 °F -32.5 °F -19.3 °F 69% 30.39 in 10.0 mi West 12.7 mph - N/A   Clear
1:35 AM -11.6 °F -33.4 °F -19.3 °F 69% 30.39 in 10.0 mi West 13.8 mph - N/A   Clear
1:55 AM -11.7 °F -32.7 °F -19.3 °F 69% 30.39 in 10.0 mi West 12.7 mph - N/A   Clear
2:15 AM -11.9 °F -33.0 °F -19.3 °F 70% 30.39 in 10.0 mi West 12.7 mph - N/A   Clear
2:35 AM -12.1 °F -32.3 °F -19.3 °F 70% 30.38 in 10.0 mi WNW 11.5 mph - N/A   Clear
2:55 AM -12.1 °F -34.1 °F -19.3 °F 70% 30.38 in 10.0 mi West 13.8 mph - N/A   Clear
3:15 AM -12.1 °F -32.3 °F -19.3 °F 70% 30.37 in 10.0 mi West 11.5 mph - N/A   Clear
3:35 AM -12.3 °F -34.3 °F -19.3 °F 71% 30.37 in 10.0 mi West 13.8 mph - N/A   Clear
3:55 AM -12.3 °F -34.3 °F -19.5 °F 70% 30.36 in 10.0 mi WNW 13.8 mph - N/A   Clear
4:15 AM -12.6 °F -33.9 °F -19.7 °F 71% 30.36 in 10.0 mi WNW 12.7 mph - N/A   Clear
4:35 AM -12.6 °F -32.9 °F -20.0 °F 70% 30.37 in 10.0 mi West 11.5 mph - N/A   Clear
4:55 AM -12.6 °F -31.9 °F -20.2 °F 69% 30.37 in 10.0 mi West 10.4 mph - N/A   Clear
5:15 AM -13.0 °F -32.4 °F -20.2 °F 70% 30.38 in 10.0 mi West 10.4 mph - N/A   Clear
5:35 AM -13.5 °F -30.7 °F -20.2 °F 72% 30.39 in 10.0 mi WSW 8.1 mph - N/A   Clear
5:55 AM -13.9 °F -32.4 °F -20.2 °F 73% 30.38 in 10.0 mi West 9.2 mph - N/A   Clear
6:15 AM -13.2 °F -31.5 °F -19.7 °F 73% 30.38 in 10.0 mi West 9.2 mph - N/A   Clear
6:35 AM -13.2 °F -28.8 °F -19.7 °F 73% 30.38 in 10.0 mi West 6.9 mph - N/A   Clear
6:55 AM -13.9 °F -32.4 °F -20.2 °F 73% 30.38 in 10.0 mi WSW 9.2 mph - N/A   Clear
7:15 AM -13.5 °F -33.0 °F -19.7 °F 74% 30.39 in 10.0 mi West 10.4 mph - N/A   Clear
7:35 AM -13.9 °F -31.1 °F -20.2 °F 73% 30.38 in 10.0 mi West 8.1 mph - N/A   Clear
7:55 AM -12.6 °F -30.8 °F -19.3 °F 72% 30.39 in 10.0 mi WSW 9.2 mph - N/A   Clear
8:15 AM -12.1 °F -30.1 °F -19.3 °F 70% 30.39 in 10.0 mi West 9.2 mph - N/A   Clear
8:35 AM -11.2 °F -31.1 °F -18.9 °F 69% 30.38 in 10.0 mi West 11.5 mph - N/A   Clear
8:55 AM -10.3 °F -30.9 °F -18.4 °F 67% 30.38 in 10.0 mi West 12.7 mph - N/A   Clear
9:15 AM -9.6 °F -29.1 °F -17.9 °F 67% 30.39 in 10.0 mi West 11.5 mph - N/A   Clear
9:35 AM -8.9 °F -28.2 °F -17.3 °F 66% 30.39 in 10.0 mi West 11.5 mph - N/A   Clear
9:55 AM -8.1 °F -29.8 °F -16.2 °F 68% 30.39 in 10.0 mi West 15.0 mph 19.6 mph N/A   Clear
10:15 AM -7.1 °F -25.0 °F -15.9 °F 66% 30.39 in 10.0 mi West 10.4 mph - N/A   Clear
10:35 AM -5.8 °F -23.4 °F -14.8 °F 65% 30.39 in 10.0 mi West 10.4 mph - N/A   Clear
10:55 AM -5.3 °F -26.1 °F -13.9 °F 66% 30.39 in 10.0 mi West 15.0 mph 18.4 mph N/A   Clear
11:15 AM -4.2 °F -23.2 °F -13.0 °F 66% 30.38 in 10.0 mi West 12.7 mph - N/A   Clear
11:35 AM -3.6 °F -23.3 °F -12.3 °F 67% 30.37 in 10.0 mi West 13.8 mph 19.6 mph N/A   Clear
11:55 AM -3.1 °F -22.6 °F -12.1 °F 65% 30.36 in 10.0 mi WSW 13.8 mph 19.6 mph N/A   Clear
12:15 PM -2.9 °F -23.1 °F -11.6 °F 67% 30.34 in 10.0 mi West 15.0 mph - N/A   Clear
12:35 PM -2.2 °F -22.2 °F -10.8 °F 67% 30.34 in 10.0 mi West 15.0 mph 20.7 mph N/A   Clear
12:55 PM -1.8 °F -23.0 °F -10.5 °F 67% 30.33 in 10.0 mi WSW 17.3 mph - N/A   Clear
1:15 PM -0.9 °F -21.2 °F -10.1 °F 65% 30.32 in 10.0 mi West 16.1 mph - N/A   Clear
1:35 PM -0.8 °F -21.0 °F -10.8 °F 62% 30.31 in 10.0 mi West 16.1 mph - N/A   Clear
1:55 PM -0.6 °F -18.6 °F -11.2 °F 61% 30.30 in 10.0 mi West 12.7 mph - N/A   Clear
2:15 PM 0.3 °F -19.0 °F -10.8 °F 59% 30.30 in 10.0 mi WSW 15.0 mph - N/A   Clear
2:35 PM 0.3 °F -19.6 °F -10.3 °F 61% 30.29 in 10.0 mi WSW 16.1 mph 21.9 mph N/A   Clear
2:55 PM 0.5 °F -20.0 °F -10.5 °F 60% 30.28 in 10.0 mi WSW 17.3 mph - N/A   Clear
3:15 PM 0.9 °F -18.9 °F -10.3 °F 59% 30.28 in 10.0 mi WSW 16.1 mph - N/A   Clear
3:35 PM 1.2 °F -17.1 °F -9.6 °F 61% 30.28 in 10.0 mi WSW 13.8 mph 19.6 mph N/A   Clear
3:55 PM 1.6 °F -17.3 °F -9.6 °F 60% 30.27 in 10.0 mi WSW 15.0 mph - N/A   Clear
4:15 PM 1.9 °F -18.7 °F -10.5 °F 56% 30.27 in 10.0 mi West 18.4 mph 25.3 mph N/A   Clear
4:35 PM 1.9 °F -18.7 °F -11.2 °F 54% 30.26 in 10.0 mi West 18.4 mph - N/A   Clear
4:55 PM 1.4 °F -18.8 °F -10.3 °F 58% 30.27 in 10.0 mi West 17.3 mph 23.0 mph N/A   Clear
5:15 PM 0.9 °F -17.6 °F -9.8 °F 61% 30.27 in 10.0 mi West 13.8 mph 20.7 mph N/A   Clear
5:35 PM 0.7 °F -16.2 °F -9.6 °F 62% 30.27 in 10.0 mi West 11.5 mph - N/A   Clear
5:55 PM 0.1 °F -15.1 °F -9.6 °F 64% 30.26 in 10.0 mi West 9.2 mph - N/A   Clear
6:15 PM -0.2 °F -14.4 °F -9.6 °F 65% 30.26 in 10.0 mi WSW 8.1 mph - N/A   Clear
6:35 PM -0.9 °F -14.1 °F -9.8 °F 66% 30.25 in 10.0 mi SW 6.9 mph - N/A   Clear
6:55 PM -1.3 °F -15.7 °F -9.6 °F 68% 30.24 in 10.0 mi WSW 8.1 mph - N/A   Clear
7:15 PM -1.3 °F -16.8 °F -9.6 °F 68% 30.24 in 10.0 mi WSW 9.2 mph - N/A   Clear
7:35 PM -1.5 °F -14.7 °F -9.4 °F 69% 30.24 in 10.0 mi WSW 6.9 mph - N/A   Clear
7:55 PM -1.3 °F -15.7 °F -9.4 °F 69% 30.24 in 10.0 mi WSW 8.1 mph - N/A   Clear
8:15 PM -0.8 °F -15.1 °F -8.7 °F 69% 30.23 in 10.0 mi SW 8.1 mph - N/A   Clear
8:35 PM -0.9 °F -15.3 °F -9.0 °F 69% 30.23 in 10.0 mi SW 8.1 mph - N/A   Clear
8:55 PM -0.8 °F -16.2 °F -8.7 °F 69% 30.23 in 10.0 mi SW 9.2 mph - N/A   Clear
9:15 PM -0.6 °F -14.9 °F -8.7 °F 69% 30.23 in 10.0 mi SW 8.1 mph - N/A   Clear
9:35 PM 0.1 °F -15.1 °F -8.3 °F 68% 30.23 in 10.0 mi WSW 9.2 mph - N/A   Clear
9:55 PM 0.5 °F -15.6 °F -8.1 °F 67% 30.23 in 10.0 mi WSW 10.4 mph - N/A   Clear
10:15 PM 0.9 °F -14.2 °F -7.8 °F 67% 30.22 in 10.0 mi WSW 9.2 mph - N/A   Clear
10:35 PM 0.3 °F -14.8 °F -8.0 °F 68% 30.22 in 10.0 mi WSW 9.2 mph - N/A   Clear
10:55 PM -0.4 °F -16.7 °F -8.1 °F 70% 30.21 in 10.0 mi WSW 10.4 mph - N/A   Clear
11:15 PM -0.4 °F -15.7 °F -8.0 °F 70% 30.21 in 10.0 mi WSW 9.2 mph - N/A   Clear
11:35 PM -0.2 °F -15.5 °F -8.0 °F 70% 30.21 in 10.0 mi WSW 9.2 mph - N/A   Clear
11:55 PM 0.3 °F -15.8 °F -7.8 °F 69% 30.20 in 10.0 mi WSW 10.4 mph - N/A   Clear